Year,Month,Day,Hour,Minute,Value (Times are PST for temperature in C)
2019,02,12,00,00,-2.30
2019,02,12,00,01,-2.30
2019,02,12,00,02,-2.20
2019,02,12,00,03,-2.20
2019,02,12,00,04,-2.20
2019,02,12,00,05,-2.20
2019,02,12,00,06,-2.20
2019,02,12,00,07,-2.20
2019,02,12,00,08,-2.20
2019,02,12,00,09,-2.20
2019,02,12,00,10,-2.20
2019,02,12,00,11,-2.20
2019,02,12,00,12,-2.20
2019,02,12,00,13,-2.20
2019,02,12,00,14,-2.20
2019,02,12,00,15,-2.10
2019,02,12,00,16,-2.10
2019,02,12,00,17,-2.10
2019,02,12,00,18,-2.10
2019,02,12,00,19,-2.10
2019,02,12,00,20,-2.10
2019,02,12,00,21,-2.10
2019,02,12,00,22,-2.10
2019,02,12,00,23,-2.10
2019,02,12,00,24,-2.10
2019,02,12,00,25,-2.10
2019,02,12,00,26,-2.10
2019,02,12,00,27,-2.10
2019,02,12,00,28,-2.10
2019,02,12,00,29,-2.10
2019,02,12,00,30,-2.10
2019,02,12,00,31,-2.10
2019,02,12,00,32,-2.10
2019,02,12,00,33,-2.10
2019,02,12,00,34,-2.10
2019,02,12,00,35,-2.10
2019,02,12,00,36,-2.10
2019,02,12,00,37,-2.10
2019,02,12,00,38,-2.10
2019,02,12,00,39,-2.10
2019,02,12,00,40,-2.10
2019,02,12,00,41,-2.10
2019,02,12,00,42,-2.10
2019,02,12,00,43,-2.10
2019,02,12,00,44,-2.10
2019,02,12,00,45,-2.10
2019,02,12,00,46,-2.10
2019,02,12,00,47,-2.10
2019,02,12,00,48,-2.00
2019,02,12,00,49,-2.00
2019,02,12,00,50,-2.00
2019,02,12,00,51,-2.00
2019,02,12,00,52,-2.00
2019,02,12,00,53,-2.00
2019,02,12,00,54,-2.00
2019,02,12,00,55,-2.00
2019,02,12,00,56,-1.90
2019,02,12,00,57,-1.90
2019,02,12,00,58,-1.90
2019,02,12,00,59,-1.90
2019,02,12,01,00,-1.90
2019,02,12,01,01,-1.90
2019,02,12,01,02,-1.90
2019,02,12,01,03,-1.90
2019,02,12,01,04,-1.90
2019,02,12,01,05,-1.90
2019,02,12,01,06,-1.90
2019,02,12,01,07,-1.90
2019,02,12,01,08,-1.90
2019,02,12,01,09,-1.80
2019,02,12,01,10,-1.80
2019,02,12,01,11,-1.80
2019,02,12,01,12,-1.80
2019,02,12,01,13,-1.80
2019,02,12,01,14,-1.80
2019,02,12,01,15,-1.80
2019,02,12,01,16,-1.80
2019,02,12,01,17,-1.80
2019,02,12,01,18,-1.80
2019,02,12,01,19,-1.80
2019,02,12,01,20,-1.80
2019,02,12,01,21,-1.80
2019,02,12,01,22,-1.80
2019,02,12,01,23,-1.80
2019,02,12,01,24,-1.80
2019,02,12,01,25,-1.80
2019,02,12,01,26,-1.80
2019,02,12,01,27,-1.80
2019,02,12,01,28,-1.80
2019,02,12,01,29,-1.70
2019,02,12,01,30,-1.70
2019,02,12,01,31,-1.70
2019,02,12,01,32,-1.70
2019,02,12,01,33,-1.70
2019,02,12,01,34,-1.70
2019,02,12,01,35,-1.70
2019,02,12,01,36,-1.70
2019,02,12,01,37,-1.70
2019,02,12,01,38,-1.70
2019,02,12,01,39,-1.70
2019,02,12,01,40,-1.70
2019,02,12,01,41,-1.70
2019,02,12,01,42,-1.70
2019,02,12,01,43,-1.70
2019,02,12,01,44,-1.70
2019,02,12,01,45,-1.70
2019,02,12,01,46,-1.70
2019,02,12,01,47,-1.70
2019,02,12,01,48,-1.70
2019,02,12,01,49,-1.70
2019,02,12,01,50,-1.70
2019,02,12,01,51,-1.70
2019,02,12,01,52,-1.70
2019,02,12,01,53,-1.60
2019,02,12,01,54,-1.60
2019,02,12,01,55,-1.60
2019,02,12,01,56,-1.60
2019,02,12,01,57,-1.60
2019,02,12,01,58,-1.60
2019,02,12,01,59,-1.60
2019,02,12,02,00,-1.60
2019,02,12,02,01,-1.60
2019,02,12,02,02,-1.60
2019,02,12,02,03,-1.60
2019,02,12,02,04,-1.60
2019,02,12,02,05,-1.60
2019,02,12,02,06,-1.60
2019,02,12,02,07,-1.60
2019,02,12,02,08,-1.60
2019,02,12,02,09,-1.60
2019,02,12,02,10,-1.60
2019,02,12,02,11,-1.60
2019,02,12,02,12,-1.60
2019,02,12,02,13,-1.60
2019,02,12,02,14,-1.60
2019,02,12,02,15,-1.60
2019,02,12,02,16,-1.60
2019,02,12,02,17,-1.60
2019,02,12,02,18,-1.60
2019,02,12,02,19,-1.60
2019,02,12,02,20,-1.60
2019,02,12,02,21,-1.60
2019,02,12,02,22,-1.60
2019,02,12,02,23,-1.60
2019,02,12,02,24,-1.60
2019,02,12,02,25,-1.60
2019,02,12,02,26,-1.60
2019,02,12,02,27,-1.60
2019,02,12,02,28,-1.60
2019,02,12,02,29,-1.60
2019,02,12,02,30,-1.60
2019,02,12,02,31,-1.60
2019,02,12,02,32,-1.60
2019,02,12,02,33,-1.60
2019,02,12,02,34,-1.60
2019,02,12,02,35,-1.60
2019,02,12,02,36,-1.60
2019,02,12,02,37,-1.60
2019,02,12,02,38,-1.60
2019,02,12,02,39,-1.60
2019,02,12,02,40,-1.60
2019,02,12,02,41,-1.60
2019,02,12,02,42,-1.60
2019,02,12,02,43,-1.60
2019,02,12,02,44,-1.60
2019,02,12,02,45,-1.60
2019,02,12,02,46,-1.60
2019,02,12,02,47,-1.60
2019,02,12,02,48,-1.60
2019,02,12,02,49,-1.60
2019,02,12,02,50,-1.60
2019,02,12,02,51,-1.60
2019,02,12,02,52,-1.60
2019,02,12,02,53,-1.60
2019,02,12,02,54,-1.60
2019,02,12,02,55,-1.60
2019,02,12,02,56,-1.60
2019,02,12,02,57,-1.60
2019,02,12,02,58,-1.60
2019,02,12,02,59,-1.60
2019,02,12,03,00,-1.60
2019,02,12,03,01,-1.60
2019,02,12,03,02,-1.60
2019,02,12,03,03,-1.60
2019,02,12,03,04,-1.60
2019,02,12,03,05,-1.60
2019,02,12,03,06,-1.60
2019,02,12,03,07,-1.60
2019,02,12,03,08,-1.60
2019,02,12,03,09,-1.60
2019,02,12,03,10,-1.60
2019,02,12,03,11,-1.60
2019,02,12,03,12,-1.60
2019,02,12,03,13,-1.60
2019,02,12,03,14,-1.60
2019,02,12,03,15,-1.60
2019,02,12,03,16,-1.60
2019,02,12,03,17,-1.60
2019,02,12,03,18,-1.60
2019,02,12,03,19,-1.60
2019,02,12,03,20,-1.60
2019,02,12,03,21,-1.60
2019,02,12,03,22,-1.60
2019,02,12,03,23,-1.60
2019,02,12,03,24,-1.60
2019,02,12,03,25,-1.60
2019,02,12,03,26,-1.60
2019,02,12,03,27,-1.60
2019,02,12,03,28,-1.60
2019,02,12,03,29,-1.60
2019,02,12,03,30,-1.60
2019,02,12,03,31,-1.60
2019,02,12,03,32,-1.60
2019,02,12,03,33,-1.60
2019,02,12,03,34,-1.60
2019,02,12,03,35,-1.60
2019,02,12,03,36,-1.60
2019,02,12,03,37,-1.60
2019,02,12,03,38,-1.60
2019,02,12,03,39,-1.60
2019,02,12,03,40,-1.60
2019,02,12,03,41,-1.60
2019,02,12,03,42,-1.60
2019,02,12,03,43,-1.60
2019,02,12,03,44,-1.60
2019,02,12,03,45,-1.60
2019,02,12,03,46,-1.60
2019,02,12,03,47,-1.60
2019,02,12,03,48,-1.60
2019,02,12,03,49,-1.60
2019,02,12,03,50,-1.60
2019,02,12,03,51,-1.60
2019,02,12,03,52,-1.60
2019,02,12,03,53,-1.60
2019,02,12,03,54,-1.60
2019,02,12,03,55,-1.60
2019,02,12,03,56,-1.60
2019,02,12,03,57,-1.60
2019,02,12,03,58,-1.60
2019,02,12,03,59,-1.60
2019,02,12,04,00,-1.60
2019,02,12,04,01,-1.60
2019,02,12,04,02,-1.60
2019,02,12,04,03,-1.60
2019,02,12,04,04,-1.60
2019,02,12,04,05,-1.60
2019,02,12,04,06,-1.60
2019,02,12,04,07,-1.60
2019,02,12,04,08,-1.60
2019,02,12,04,09,-1.60
2019,02,12,04,10,-1.60
2019,02,12,04,11,-1.60
2019,02,12,04,12,-1.60
2019,02,12,04,13,-1.60
2019,02,12,04,14,-1.60
2019,02,12,04,15,-1.60
2019,02,12,04,16,-1.60
2019,02,12,04,17,-1.60
2019,02,12,04,18,-1.60
2019,02,12,04,19,-1.60
2019,02,12,04,20,-1.60
2019,02,12,04,21,-1.60
2019,02,12,04,22,-1.60
2019,02,12,04,23,-1.60
2019,02,12,04,24,-1.60
2019,02,12,04,25,-1.60
2019,02,12,04,26,-1.60
2019,02,12,04,27,-1.60
2019,02,12,04,28,-1.60
2019,02,12,04,29,-1.60
2019,02,12,04,30,-1.60
2019,02,12,04,31,-1.60
2019,02,12,04,32,-1.60
2019,02,12,04,33,-1.60
2019,02,12,04,34,-1.60
2019,02,12,04,35,-1.60
2019,02,12,04,36,-1.60
2019,02,12,04,37,-1.60
2019,02,12,04,38,-1.60
2019,02,12,04,39,-1.60
2019,02,12,04,40,-1.60
2019,02,12,04,41,-1.60
2019,02,12,04,42,-1.60
2019,02,12,04,43,-1.60
2019,02,12,04,44,-1.60
2019,02,12,04,45,-1.60
2019,02,12,04,46,-1.60
2019,02,12,04,47,-1.60
2019,02,12,04,48,-1.60
2019,02,12,04,49,-1.60
2019,02,12,04,50,-1.60
2019,02,12,04,51,-1.60
2019,02,12,04,52,-1.60
2019,02,12,04,53,-1.60
2019,02,12,04,54,-1.60
2019,02,12,04,55,-1.60
2019,02,12,04,56,-1.60
2019,02,12,04,57,-1.60
2019,02,12,04,58,-1.60
2019,02,12,04,59,-1.60
2019,02,12,05,00,-1.70
2019,02,12,05,01,-1.70
2019,02,12,05,02,-1.70
2019,02,12,05,03,-1.70
2019,02,12,05,04,-1.70
2019,02,12,05,05,-1.70
2019,02,12,05,06,-1.70
2019,02,12,05,07,-1.70
2019,02,12,05,08,-1.70
2019,02,12,05,09,-1.70
2019,02,12,05,10,-1.70
2019,02,12,12,01,-0.40
2019,02,12,12,02,-0.40
2019,02,12,12,03,-0.30
2019,02,12,12,04,-0.30
2019,02,12,12,05,-0.30
2019,02,12,12,06,-0.30
2019,02,12,12,07,-0.30
2019,02,12,12,08,-0.30
2019,02,12,12,09,-0.30
2019,02,12,12,10,-0.20
2019,02,12,12,11,-0.20
2019,02,12,12,12,-0.20
2019,02,12,12,13,-0.20
2019,02,12,12,14,-0.20
2019,02,12,12,15,-0.20
2019,02,12,12,16,-0.20
2019,02,12,12,17,-0.20
2019,02,12,12,18,-0.20
2019,02,12,12,19,-0.20
2019,02,12,12,20,-0.20
2019,02,12,12,21,-0.20
2019,02,12,12,22,-0.20
2019,02,12,12,23,-0.20
2019,02,12,12,24,-0.20
2019,02,12,12,25,-0.20
2019,02,12,12,26,-0.20
2019,02,12,12,27,-0.20
2019,02,12,12,28,-0.20
2019,02,12,12,29,-0.20
2019,02,12,12,30,-0.20
2019,02,12,12,31,-0.20
2019,02,12,12,32,-0.20
2019,02,12,12,33,-0.20
2019,02,12,12,34,-0.20
2019,02,12,12,35,-0.20
2019,02,12,12,36,-0.20
2019,02,12,12,37,-0.20
2019,02,12,12,38,-0.20
2019,02,12,12,39,-0.30
2019,02,12,12,40,-0.20
2019,02,12,12,41,-0.20
2019,02,12,12,42,-0.20
2019,02,12,12,43,-0.20
2019,02,12,12,44,-0.20
2019,02,12,12,45,-0.20
2019,02,12,12,46,-0.20
2019,02,12,12,47,-0.20
2019,02,12,12,48,-0.20
2019,02,12,12,49,-0.20
2019,02,12,12,50,-0.30
2019,02,12,12,51,-0.30
2019,02,12,12,52,-0.30
2019,02,12,12,53,-0.30
2019,02,12,12,54,-0.30
2019,02,12,12,55,-0.30
2019,02,12,12,56,-0.30
2019,02,12,12,57,-0.30
2019,02,12,12,58,-0.30
2019,02,12,12,59,-0.20
2019,02,12,13,00,-0.20
2019,02,12,13,01,-0.20
2019,02,12,13,02,-0.20
2019,02,12,13,03,-0.20
2019,02,12,13,04,-0.20
2019,02,12,13,05,-0.20
2019,02,12,13,06,-0.20
2019,02,12,13,07,-0.20
2019,02,12,13,08,-0.20
2019,02,12,13,09,-0.20
2019,02,12,13,10,-0.20
2019,02,12,13,11,-0.20
2019,02,12,13,12,-0.20
2019,02,12,13,13,-0.20
2019,02,12,13,14,-0.20
2019,02,12,13,15,-0.20
2019,02,12,13,16,-0.20
2019,02,12,13,17,-0.10
2019,02,12,13,18,-0.10
2019,02,12,13,19,-0.10
2019,02,12,13,20,-0.10
2019,02,12,13,21,0.00
2019,02,12,13,22,0.00
2019,02,12,13,23,0.00
2019,02,12,13,24,0.00
2019,02,12,13,25,0.00
2019,02,12,13,26,0.00
2019,02,12,13,27,0.00
2019,02,12,13,28,0.00
2019,02,12,13,29,-0.10
2019,02,12,13,30,-0.10
2019,02,12,13,31,-0.10
2019,02,12,13,32,-0.10
2019,02,12,13,33,-0.10
2019,02,12,13,34,-0.10
2019,02,12,13,35,0.00
2019,02,12,13,36,0.00
2019,02,12,13,37,0.00
2019,02,12,13,38,0.00
2019,02,12,13,39,0.00
2019,02,12,13,40,-0.10
2019,02,12,13,41,0.00
2019,02,12,13,42,-0.10
2019,02,12,13,43,-0.10
2019,02,12,13,44,0.00
2019,02,12,13,45,0.00
2019,02,12,13,46,0.00
2019,02,12,13,47,0.00
2019,02,12,13,48,0.00
2019,02,12,13,49,0.00
2019,02,12,13,50,0.00
2019,02,12,13,51,0.00
2019,02,12,13,52,-0.10
2019,02,12,13,53,-0.10
2019,02,12,13,54,-0.10
2019,02,12,13,55,-0.10
2019,02,12,13,56,0.00
2019,02,12,13,57,0.00
2019,02,12,13,58,0.00
2019,02,12,13,59,0.00
2019,02,12,14,00,0.00
2019,02,12,14,01,0.00
2019,02,12,14,02,0.10
2019,02,12,14,03,0.10
2019,02,12,14,04,0.10
2019,02,12,14,05,0.10
2019,02,12,14,06,0.10
2019,02,12,14,07,0.10
2019,02,12,14,08,0.10
2019,02,12,14,09,0.10
2019,02,12,14,10,0.10
2019,02,12,14,11,0.10
2019,02,12,14,12,0.10
2019,02,12,14,13,0.10
2019,02,12,14,14,0.20
2019,02,12,14,15,0.20
2019,02,12,14,16,0.20
2019,02,12,14,17,0.20
2019,02,12,14,18,0.10
2019,02,12,14,19,0.10
2019,02,12,14,20,0.10
2019,02,12,14,21,0.10
2019,02,12,14,22,0.10
2019,02,12,14,23,0.10
2019,02,12,14,24,0.10
2019,02,12,14,25,0.10
2019,02,12,14,26,0.10
2019,02,12,14,27,0.10
2019,02,12,14,28,0.10
2019,02,12,14,29,0.10
2019,02,12,14,30,0.10
2019,02,12,14,31,0.10
2019,02,12,14,32,0.10
2019,02,12,14,33,0.10
2019,02,12,14,34,0.10
2019,02,12,14,35,0.10
2019,02,12,14,36,0.10
2019,02,12,14,37,0.10
2019,02,12,14,38,0.10
2019,02,12,14,39,0.10
2019,02,12,14,40,0.10
2019,02,12,14,41,0.10
2019,02,12,14,42,0.10
2019,02,12,14,43,0.10
2019,02,12,14,44,0.10
2019,02,12,14,45,0.10
2019,02,12,14,46,0.10
2019,02,12,14,47,0.10
2019,02,12,14,48,0.10
2019,02,12,14,49,0.00
2019,02,12,14,50,0.10
2019,02,12,14,51,0.10
2019,02,12,14,52,0.10
2019,02,12,14,53,0.10
2019,02,12,14,54,0.10
2019,02,12,14,55,0.10
2019,02,12,14,56,0.10
2019,02,12,14,57,0.10
2019,02,12,14,58,0.10
2019,02,12,14,59,0.00
2019,02,12,15,00,0.00
2019,02,12,15,01,0.00
2019,02,12,15,02,-0.10
2019,02,12,15,03,-0.10
2019,02,12,15,04,-0.10
2019,02,12,15,05,-0.10
2019,02,12,15,06,-0.10
2019,02,12,15,07,-0.10
2019,02,12,15,08,-0.10
2019,02,12,15,09,-0.10
2019,02,12,15,10,-0.10
2019,02,12,15,11,-0.10
2019,02,12,15,12,-0.10
2019,02,12,15,13,-0.10
2019,02,12,15,14,-0.10
2019,02,12,15,15,-0.10
2019,02,12,15,16,-0.10
2019,02,12,15,17,-0.10
2019,02,12,15,18,-0.10
2019,02,12,15,19,-0.10
2019,02,12,15,20,-0.10
2019,02,12,15,21,-0.10
2019,02,12,15,22,-0.10
2019,02,12,15,23,-0.10
2019,02,12,15,24,-0.10
2019,02,12,15,25,-0.10
2019,02,12,15,26,-0.10
2019,02,12,15,27,0.00
2019,02,12,15,28,0.00
2019,02,12,15,29,0.00
2019,02,12,15,30,0.00
2019,02,12,15,31,0.00
2019,02,12,15,32,0.00
2019,02,12,15,33,0.00
2019,02,12,15,34,0.00
2019,02,12,15,35,0.00
2019,02,12,15,36,0.00
2019,02,12,15,37,0.00
2019,02,12,15,38,0.00
2019,02,12,15,39,0.00
2019,02,12,15,40,0.00
2019,02,12,15,41,0.00
2019,02,12,15,42,0.00
2019,02,12,15,43,0.00
2019,02,12,15,44,0.00
2019,02,12,15,45,0.00
2019,02,12,15,46,0.00
2019,02,12,15,47,0.00
2019,02,12,15,48,0.00
2019,02,12,15,49,-0.10
2019,02,12,15,50,-0.10
2019,02,12,15,51,-0.10
2019,02,12,15,52,-0.10
2019,02,12,15,53,-0.10
2019,02,12,15,54,-0.10
2019,02,12,15,55,-0.10
2019,02,12,15,56,-0.10
2019,02,12,15,57,-0.10
2019,02,12,15,58,-0.10
2019,02,12,15,59,-0.10
2019,02,12,16,00,-0.10
2019,02,12,16,01,-0.10
2019,02,12,16,02,-0.10
2019,02,12,16,03,-0.10
2019,02,12,16,04,-0.10
2019,02,12,16,05,-0.10
2019,02,12,16,06,-0.10
2019,02,12,16,07,0.00
2019,02,12,16,08,0.00
2019,02,12,16,09,0.00
2019,02,12,16,10,0.10
2019,02,12,16,11,0.10
2019,02,12,16,12,0.10
2019,02,12,16,13,0.10
2019,02,12,16,14,0.10
2019,02,12,16,15,0.10
2019,02,12,16,16,0.10
2019,02,12,16,17,0.10
2019,02,12,16,18,0.10
2019,02,12,16,19,0.00
2019,02,12,16,20,0.00
2019,02,12,16,21,0.00
2019,02,12,16,22,0.10
2019,02,12,16,23,0.10
2019,02,12,16,24,0.10
2019,02,12,16,25,0.10
2019,02,12,16,26,0.10
2019,02,12,16,27,0.10
2019,02,12,16,28,0.10
2019,02,12,16,29,0.10
2019,02,12,16,30,0.10
2019,02,12,16,31,0.10
2019,02,12,16,32,0.10
2019,02,12,16,33,0.10
2019,02,12,16,34,0.10
2019,02,12,16,35,0.10
2019,02,12,16,36,0.10
2019,02,12,16,37,0.10
2019,02,12,16,38,0.10
2019,02,12,16,39,0.10
2019,02,12,16,40,0.10
2019,02,12,16,41,0.10
2019,02,12,16,42,0.10
2019,02,12,16,43,0.10
2019,02,12,16,44,0.00
2019,02,12,16,45,0.00
2019,02,12,16,46,0.00
2019,02,12,16,47,-0.10
2019,02,12,16,48,-0.10
2019,02,12,16,49,-0.10
2019,02,12,16,50,-0.20
2019,02,12,16,51,-0.20
2019,02,12,16,52,-0.20
2019,02,12,16,53,-0.20
2019,02,12,16,54,-0.30
2019,02,12,16,55,-0.30
2019,02,12,16,56,-0.30
2019,02,12,16,57,-0.30
2019,02,12,16,58,-0.30
2019,02,12,16,59,-0.30
2019,02,12,17,00,-0.30
2019,02,12,17,01,-0.30
2019,02,12,17,02,-0.30
2019,02,12,17,03,-0.30
2019,02,12,17,04,-0.30
2019,02,12,17,05,-0.30
2019,02,12,17,06,-0.30
2019,02,12,17,07,-0.40
2019,02,12,17,08,-0.40
2019,02,12,17,09,-0.40
2019,02,12,17,10,-0.40
2019,02,12,17,11,-0.40
2019,02,12,17,12,-0.40
2019,02,12,17,13,-0.40
2019,02,12,17,14,-0.40
2019,02,12,17,15,-0.40
2019,02,12,17,16,-0.40
2019,02,12,17,17,-0.40
2019,02,12,17,18,-0.40
2019,02,12,17,19,-0.40
2019,02,12,17,20,-0.40
2019,02,12,17,21,-0.40
2019,02,12,17,22,-0.40
2019,02,12,17,23,-0.40
2019,02,12,17,24,-0.40
2019,02,12,17,25,-0.40
2019,02,12,17,26,-0.40
2019,02,12,17,27,-0.40
2019,02,12,17,28,-0.40
2019,02,12,17,29,-0.40
2019,02,12,17,30,-0.40
2019,02,12,17,31,-0.40
2019,02,12,17,32,-0.40
2019,02,12,17,33,-0.40
2019,02,12,17,34,-0.50
2019,02,12,17,35,-0.50
2019,02,12,17,36,-0.50
2019,02,12,17,37,-0.50
2019,02,12,17,38,-0.50
2019,02,12,17,39,-0.50
2019,02,12,17,40,-0.50
2019,02,12,17,41,-0.50
2019,02,12,17,42,-0.50
2019,02,12,17,43,-0.50
2019,02,12,17,44,-0.50
2019,02,12,17,45,-0.50
2019,02,12,17,46,-0.50
2019,02,12,17,47,-0.50
2019,02,12,17,48,-0.50
2019,02,12,17,49,-0.50
2019,02,12,17,50,-0.50
2019,02,12,17,51,-0.50
2019,02,12,17,52,-0.50
2019,02,12,17,53,-0.50
2019,02,12,17,54,-0.50
2019,02,12,17,55,-0.50
2019,02,12,17,56,-0.50
2019,02,12,17,57,-0.50
2019,02,12,17,58,-0.50
2019,02,12,17,59,-0.50
2019,02,12,18,00,-0.50
2019,02,12,18,01,-0.50
2019,02,12,18,02,-0.50
2019,02,12,18,03,-0.50
2019,02,12,18,04,-0.50
2019,02,12,18,05,-0.50
2019,02,12,18,06,-0.50
2019,02,12,18,07,-0.50
2019,02,12,18,08,-0.50
2019,02,12,18,09,-0.50
2019,02,12,18,10,-0.50
2019,02,12,18,11,-0.50
2019,02,12,18,12,-0.50
2019,02,12,18,13,-0.50
2019,02,12,18,14,-0.50
2019,02,12,18,15,-0.50
2019,02,12,18,16,-0.50
2019,02,12,18,17,-0.50
2019,02,12,18,18,-0.50
2019,02,12,18,19,-0.50
2019,02,12,18,20,-0.50
2019,02,12,18,21,-0.50
2019,02,12,18,22,-0.50
2019,02,12,18,23,-0.50
2019,02,12,18,24,-0.50
2019,02,12,18,25,-0.50
2019,02,12,18,26,-0.50
2019,02,12,18,27,-0.50
2019,02,12,18,28,-0.50
2019,02,12,18,29,-0.40
2019,02,12,18,30,-0.40
2019,02,12,18,31,-0.40
2019,02,12,18,32,-0.40
2019,02,12,18,33,-0.40
2019,02,12,18,34,-0.40
2019,02,12,18,35,-0.40
2019,02,12,18,36,-0.40
2019,02,12,18,37,-0.40
2019,02,12,18,38,-0.40
2019,02,12,18,39,-0.40
2019,02,12,18,40,-0.40
2019,02,12,18,41,-0.40
2019,02,12,18,42,-0.40
2019,02,12,18,43,-0.40
2019,02,12,18,44,-0.40
2019,02,12,18,45,-0.40
2019,02,12,18,46,-0.40
2019,02,12,18,47,-0.40
2019,02,12,18,48,-0.40
2019,02,12,18,49,-0.40
2019,02,12,18,50,-0.40
2019,02,12,18,51,-0.40
2019,02,12,18,52,-0.40
2019,02,12,18,53,-0.40
2019,02,12,18,54,-0.40
2019,02,12,18,55,-0.40
2019,02,12,18,56,-0.40
2019,02,12,18,57,-0.40
2019,02,12,18,58,-0.40
2019,02,12,18,59,-0.40
2019,02,12,19,00,-0.40
2019,02,12,19,01,-0.40
2019,02,12,19,02,-0.40
2019,02,12,19,03,-0.40
2019,02,12,19,04,-0.40
2019,02,12,19,05,-0.40
2019,02,12,19,06,-0.40
2019,02,12,19,07,-0.40
2019,02,12,19,08,-0.40
2019,02,12,19,09,-0.40
2019,02,12,19,10,-0.50
2019,02,12,19,11,-0.50
2019,02,12,19,12,-0.50
2019,02,12,19,13,-0.50
2019,02,12,19,14,-0.50
2019,02,12,19,15,-0.50
2019,02,12,19,16,-0.50
2019,02,12,19,17,-0.50
2019,02,12,19,18,-0.50
2019,02,12,19,19,-0.50
2019,02,12,19,20,-0.50
2019,02,12,19,21,-0.50
2019,02,12,19,22,-0.50
2019,02,12,19,23,-0.50
2019,02,12,19,24,-0.50
2019,02,12,19,25,-0.50
2019,02,12,19,26,-0.50
2019,02,12,19,27,-0.50
2019,02,12,19,28,-0.50
2019,02,12,19,29,-0.50
2019,02,12,19,30,-0.50
2019,02,12,19,31,-0.50
2019,02,12,19,32,-0.50
2019,02,12,19,33,-0.50
2019,02,12,19,34,-0.40
2019,02,12,19,35,-0.40
2019,02,12,19,36,-0.40
2019,02,12,19,37,-0.40
2019,02,12,19,38,-0.40
2019,02,12,19,39,-0.40
2019,02,12,19,40,-0.40
2019,02,12,19,41,-0.40
2019,02,12,19,42,-0.40
2019,02,12,19,43,-0.40
2019,02,12,19,44,-0.40
2019,02,12,19,45,-0.40
2019,02,12,19,46,-0.40
2019,02,12,19,47,-0.40
2019,02,12,19,48,-0.40
2019,02,12,19,49,-0.40
2019,02,12,19,50,-0.40
2019,02,12,19,51,-0.40
2019,02,12,19,52,-0.40
2019,02,12,19,53,-0.40
2019,02,12,19,54,-0.40
2019,02,12,19,55,-0.40
2019,02,12,19,56,-0.40
2019,02,12,19,57,-0.40
2019,02,12,19,58,-0.40
2019,02,12,19,59,-0.40
2019,02,12,20,00,-0.40
2019,02,12,20,01,-0.40
2019,02,12,20,02,-0.40
2019,02,12,20,03,-0.40
2019,02,12,20,04,-0.40
2019,02,12,20,05,-0.40
2019,02,12,20,06,-0.40
2019,02,12,20,07,-0.40
2019,02,12,20,08,-0.40
2019,02,12,20,09,-0.40
2019,02,12,20,10,-0.40
2019,02,12,20,11,-0.40
2019,02,12,20,12,-0.40
2019,02,12,20,13,-0.40
2019,02,12,20,14,-0.40
2019,02,12,20,15,-0.40
2019,02,12,20,16,-0.40
2019,02,12,20,17,-0.40
2019,02,12,20,18,-0.40
2019,02,12,20,19,-0.40
2019,02,12,20,20,-0.40
2019,02,12,20,21,-0.40
2019,02,12,20,22,-0.40
2019,02,12,20,23,-0.40
2019,02,12,20,24,-0.40
2019,02,12,20,25,-0.40
2019,02,12,20,26,-0.40
2019,02,12,20,27,-0.40
2019,02,12,20,28,-0.40
2019,02,12,20,29,-0.40
2019,02,12,20,30,-0.40
2019,02,12,20,31,-0.40
2019,02,12,20,32,-0.40
2019,02,12,20,33,-0.40
2019,02,12,20,34,-0.40
2019,02,12,20,35,-0.40
2019,02,12,20,36,-0.40
2019,02,12,20,37,-0.40
2019,02,12,20,38,-0.40
2019,02,12,20,39,-0.40
2019,02,12,20,40,-0.40
2019,02,12,20,41,-0.40
2019,02,12,20,42,-0.50
2019,02,12,20,43,-0.50
2019,02,12,20,44,-0.50
2019,02,12,20,45,-0.50
2019,02,12,20,46,-0.50
2019,02,12,20,47,-0.50
2019,02,12,20,48,-0.50
2019,02,12,20,49,-0.50
2019,02,12,20,50,-0.50
2019,02,12,20,51,-0.50
2019,02,12,20,52,-0.40
2019,02,12,20,53,-0.50
2019,02,12,20,54,-0.40
2019,02,12,20,55,-0.40
2019,02,12,20,56,-0.40
2019,02,12,20,57,-0.40
2019,02,12,20,58,-0.40
2019,02,12,20,59,-0.40
2019,02,12,21,00,-0.40
2019,02,12,21,01,-0.40
2019,02,12,21,02,-0.40
2019,02,12,21,03,-0.40
2019,02,12,21,04,-0.40
2019,02,12,21,05,-0.40
2019,02,12,21,06,-0.40
2019,02,12,21,07,-0.40
2019,02,12,21,08,-0.40
2019,02,12,21,09,-0.40
2019,02,12,21,10,-0.40
2019,02,12,21,11,-0.40
2019,02,12,21,12,-0.40
2019,02,12,21,13,-0.40
2019,02,12,21,14,-0.40
2019,02,12,21,15,-0.40
2019,02,12,21,16,-0.40
2019,02,12,21,17,-0.40
2019,02,12,21,18,-0.40
2019,02,12,21,19,-0.40
2019,02,12,21,20,-0.40
2019,02,12,21,21,-0.40
2019,02,12,21,22,-0.40
2019,02,12,21,23,-0.40
2019,02,12,21,24,-0.40
2019,02,12,21,25,-0.40
2019,02,12,21,26,-0.40
2019,02,12,21,27,-0.40
2019,02,12,21,28,-0.40
2019,02,12,21,29,-0.40
2019,02,12,21,30,-0.40
2019,02,12,21,31,-0.40
2019,02,12,21,32,-0.40
2019,02,12,21,33,-0.40
2019,02,12,21,34,-0.40
2019,02,12,21,35,-0.40
2019,02,12,21,36,-0.40
2019,02,12,21,37,-0.30
2019,02,12,21,38,-0.30
2019,02,12,21,39,-0.30
2019,02,12,21,40,-0.30
2019,02,12,21,41,-0.30
2019,02,12,21,42,-0.30
2019,02,12,21,43,-0.30
2019,02,12,21,44,-0.30
2019,02,12,21,45,-0.30
2019,02,12,21,46,-0.30
2019,02,12,21,47,-0.30
2019,02,12,21,48,-0.30
2019,02,12,21,49,-0.30
2019,02,12,21,50,-0.30
2019,02,12,21,51,-0.30
2019,02,12,21,52,-0.30
2019,02,12,21,53,-0.30
2019,02,12,21,54,-0.30
2019,02,12,21,55,-0.30
2019,02,12,21,56,-0.30
2019,02,12,21,57,-0.30
2019,02,12,21,58,-0.20
2019,02,12,21,59,-0.30
2019,02,12,22,00,-0.30
2019,02,12,22,01,-0.30
2019,02,12,22,02,-0.30
2019,02,12,22,03,-0.30
2019,02,12,22,04,-0.30
2019,02,12,22,05,-0.30
2019,02,12,22,06,-0.30
2019,02,12,22,07,-0.30
2019,02,12,22,08,-0.30
2019,02,12,22,09,-0.30
2019,02,12,22,10,-0.30
2019,02,12,22,11,-0.30
2019,02,12,22,12,-0.30
2019,02,12,22,13,-0.30
2019,02,12,22,14,-0.30
2019,02,12,22,15,-0.30
2019,02,12,22,16,-0.30
2019,02,12,22,17,-0.30
2019,02,12,22,18,-0.30
2019,02,12,22,19,-0.20
2019,02,12,22,20,-0.20
2019,02,12,22,21,-0.20
2019,02,12,22,22,-0.20
2019,02,12,22,23,-0.20
2019,02,12,22,24,-0.20
2019,02,12,22,25,-0.20
2019,02,12,22,26,-0.20
2019,02,12,22,27,-0.20
2019,02,12,22,28,-0.20
2019,02,12,22,29,-0.20
2019,02,12,22,30,-0.20
2019,02,12,22,31,-0.20
2019,02,12,22,32,-0.20
2019,02,12,22,33,-0.20
2019,02,12,22,34,-0.20
2019,02,12,22,35,-0.20
2019,02,12,22,36,-0.20
2019,02,12,22,37,-0.20
2019,02,12,22,38,-0.20
2019,02,12,22,39,-0.30
2019,02,12,22,40,-0.20
2019,02,12,22,41,-0.20
2019,02,12,22,42,-0.30
2019,02,12,22,43,-0.20
2019,02,12,22,44,-0.20
2019,02,12,22,45,-0.20
2019,02,12,22,46,-0.20
2019,02,12,22,47,-0.20
2019,02,12,22,48,-0.20
2019,02,12,22,49,-0.20
2019,02,12,22,50,-0.20
2019,02,12,22,51,-0.30
2019,02,12,22,52,-0.30
2019,02,12,22,53,-0.30
2019,02,12,22,54,-0.30
2019,02,12,22,55,-0.30
2019,02,12,22,56,-0.30
2019,02,12,22,57,-0.30
2019,02,12,22,58,-0.30
2019,02,12,22,59,-0.30
2019,02,12,23,00,-0.30
2019,02,12,23,01,-0.30
2019,02,12,23,02,-0.30
2019,02,12,23,03,-0.30
2019,02,12,23,04,-0.30
2019,02,12,23,05,-0.30
2019,02,12,23,06,-0.30
2019,02,12,23,07,-0.30
2019,02,12,23,08,-0.30
2019,02,12,23,09,-0.30
2019,02,12,23,10,-0.30
2019,02,12,23,11,-0.30
2019,02,12,23,12,-0.30
2019,02,12,23,13,-0.30
2019,02,12,23,14,-0.30
2019,02,12,23,15,-0.30
2019,02,12,23,16,-0.30
2019,02,12,23,17,-0.30
2019,02,12,23,18,-0.30
2019,02,12,23,19,-0.30
2019,02,12,23,20,-0.30
2019,02,12,23,21,-0.30
2019,02,12,23,22,-0.30
2019,02,12,23,23,-0.30
2019,02,12,23,24,-0.30
2019,02,12,23,25,-0.30
2019,02,12,23,26,-0.20
2019,02,12,23,27,-0.20
2019,02,12,23,28,-0.20
2019,02,12,23,29,-0.20
2019,02,12,23,30,-0.20
2019,02,12,23,31,-0.20
2019,02,12,23,32,-0.20
2019,02,12,23,33,-0.20
2019,02,12,23,34,-0.20
2019,02,12,23,35,-0.20
2019,02,12,23,36,-0.20
2019,02,12,23,37,-0.20
2019,02,12,23,38,-0.20
2019,02,12,23,39,-0.20
2019,02,12,23,40,-0.20
2019,02,12,23,41,-0.20
2019,02,12,23,42,-0.20
2019,02,12,23,43,-0.20
2019,02,12,23,44,-0.20
2019,02,12,23,45,-0.20
2019,02,12,23,46,-0.20
2019,02,12,23,47,-0.20
2019,02,12,23,48,-0.20
2019,02,12,23,49,-0.20
2019,02,12,23,50,-0.20
2019,02,12,23,51,-0.20
2019,02,12,23,52,-0.20
2019,02,12,23,53,-0.20
2019,02,12,23,54,-0.20
2019,02,12,23,55,-0.20
2019,02,12,23,56,-0.20
2019,02,12,23,57,-0.20
2019,02,12,23,58,-0.20
2019,02,12,23,59,-0.20
